Regional Weather Roundup
Issued by NWS

Home | Current Version | Previous Version | Graphics & Text | Print | Product List | Glossary On
Versions: 1 2 3 4 5 6 7 8 9 10 11 12 13 14 15 16 17 18 19 20 21 22 23 24 25 26 27 28 29 30 31 32 33 34 35 36 37 38 39 40 41 42 43 44 45 46 47 48 49 50
866
ASUS45 KTFX 171610
RWRMT
MONTANA REGIONAL WEATHER ROUNDUP
NATIONAL WEATHER SERVICE GREAT FALLS MT
900 AM MST FRI NOV 17 2017

NOTE: "FAIR" INDICATES FEW OR NO CLOUDS BELOW 12000 FEET WITH NO
SIGNIFICANT WEATHER AND/OR OBSTRUCTIONS TO VISIBILITY.

MTZ001>007-043-171700-
WEST OF THE DIVIDE

CITY           SKY/WX    TMP DP  RH WIND       PRES   REMARKS
KALISPELL      CLOUDY    34  31  88 S6        29.69R WCI  29
MISSOULA       FAIR      29  28  96 E7        29.76R WCI  22
BUTTE          FAIR      23  20  88 SW6       29.70R WCI  16
MULLAN PASS    SNOW      22  20  92 VRB3      29.67R VSB 1/4
ANACONDA         N/A     30  16  55 SW16      29.71R WCI  19
EUREKA           N/A     37  28  70 MISG      29.67R
HAMILTON         N/A     36  23  60 SE12G22   29.76R WCI  27
LIBBY            N/A     32  32 100 CALM      29.71R VSB 1/4
PLAINS           N/A     36  30  79 E5        29.77R
RONAN            N/A     34  28  79 SE3       29.78R
$$

MTZ008-052>055-171700-
SOUTHWEST MONTANA

CITY           SKY/WX    TMP DP  RH WIND       PRES   REMARKS
BOZEMAN        FAIR      29  25  85 SE5       29.69R
DILLON         FAIR      30  22  72 VRB5      29.71R
W YELLOWSTONE  FAIR      28  27  93 SW3       29.65S
ENNIS          CLOUDY    34  21  60 S6        29.73S WCI  29
TWIN BRIDGES     N/A     31  20  63 CALM      29.74R
$$

MTZ009-010-012-014-046-048-049-054-171700-
EAST SLOPES AND CENTRAL MONTANA

CITY           SKY/WX    TMP DP  RH WIND       PRES   REMARKS
CUT BANK       FAIR      32  25  75 W15       29.57R WCI  22
GREAT FALLS    FAIR      36  22  56 SW14      29.61R WCI  27
MALMSTROM AFB  FAIR      37  23  56 SW21      29.61R WCI  26
HELENA         FAIR      31  23  72 VRB5      29.68R
BOWMANS CRNR   FAIR      33  20  59 SW13      29.59R WCI  23
CHOTEAU          N/A     37  16  41 W21G26    29.59S WCI  27
POWER          PTSUNNY   31  23  71 SW13      29.59R WCI  22
RAYNESFORD     FAIR      36  18  47 SW18G28   29.61R WCI  26
ULM            FAIR      36  21  54 S7        29.63R WCI  31
$$

MTZ011-013-016-021-045-047-050-051-171700-
NORTH CENTRAL MONTANA

CITY           SKY/WX    TMP DP  RH WIND       PRES   REMARKS
HAVRE          PTSUNNY   31  26  82 SW13      29.59R WCI  21
LEWISTOWN      FAIR      34  23  64 SW6       29.61R WCI  29
N BAR RANCH    FAIR      30  19  64 NW3       29.63S
CHINOOK          N/A     18  14  86 CALM      29.61S
DENTON         PTSUNNY   30  23  75 MISG      29.59R
GEYSER         FAIR      31  19  60 W17       29.60R WCI  20
GRASS RANGE    FAIR      34  23  63 W3        29.58R
STANFORD       FAIR      35  18  49 W21G28    29.60R WCI  24
WINIFRED       PTSUNNY   35  22  58 SW7       29.60R WCI  29
$$

MTZ017>020-022>027-061-062-171700-
NORTHEAST MONTANA

CITY           SKY/WX    TMP DP  RH WIND       PRES   REMARKS
GLASGOW        PTSUNNY   25  25 100 E9        29.62S FOG     WCI  15
GLENDIVE       FAIR      29  26  89 CALM      29.65F
JORDAN           N/A     33  27  78 NW5       29.62R
SIDNEY         FAIR      18  15  88 N5        29.70R
WOLF POINT     FAIR      20  16  84 E7        29.67S WCI  11
MALTA          SUNNY     19  18  93 CALM      29.62S
PLENTYWOOD       N/A     14   9  79 CALM      29.67R
POPLAR           N/A     23  16  74 E3        29.67F
$$

MTZ028>42-056>058-171700-
SOUTHCENTRAL AND SOUTHEAST MONTANA

CITY           SKY/WX    TMP DP  RH WIND       PRES   REMARKS
BAKER          PTSUNNY   37  31  78 S6        29.65F
BILLINGS       PTSUNNY   34  30  85 CALM      29.64R
LIVINGSTON     CLOUDY    35  26  69 SW13G23   29.65R WCI  26
MILES CITY     FAIR      32  31  96 S8        29.65S WCI  25
BIG TIMBER     PTSUNNY   36  27  69 W18G24    29.67R WCI  25
FORSYTH          N/A     41  36  81 CALM      29.63F
HARLOWTON      FAIR      27  22  79 W16       29.62R WCI  15
LAUREL           N/A     36  32  87 CALM      29.66R
ROUNDUP          N/A     31  22  69 S5        29.58S
$$

REGIONAL REPORTS...DAKOTAS

CITY           SKY/WX    TMP DP  RH WIND       PRES   REMARKS
WILLISTON      FAIR      19  11  70 CALM      29.71R
MINOT          FAIR      18  10  71 W10       29.70R WCI   6
DICKINSON      FAIR      31  25  78 NW6       29.65R WCI  25
BEACH          FAIR      30  28  93 S5        29.69S
CROSBY         CLOUDY    10   9  92 W5        29.70R
TIOGA          FAIR      12   9  85 CALM      29.70R
WATFORD CITY   FAIR      19  14  79 CALM      29.70R
BISMARCK       FAIR      34  25  69 N7        29.72R WCI  28
GRAND FORKS    CLOUDY    29  20  69 NW15      29.67R WCI  18
FARGO          FAIR      35  29  78 W5        29.64R
BUFFALO SD       N/A     37  33  85 W3        29.61R
RAPID CITY     CLOUDY    37  35  92 CALM      29.69F
$$

REGIONAL REPORTS...WYOMING/IDAHO/WASHINGTON

CITY           SKY/WX    TMP DP  RH WIND       PRES   REMARKS
GILLETTE       CLOUDY    34  32  92 CALM      29.65F FOG
SHERIDAN       CLOUDY    33  33 100 S6        29.66F WCI  28
BUFFALO WY     SNOW      32  30  92 SE3       29.66F VSB<1/4
CODY           SNOW      32  30  93 N7        29.68R VSB 1/4 WCI  26
YELLOWSTONE LA   N/A     23  21  92 CALM      29.68R
IDAHO FALLS    CLOUDY    35  33  92 SW18      29.75R WCI  24
SALMON         FLURRIES  31  29  92 CALM      29.79R
BOISE          FAIR      39  30  70 NW8       29.92R
SPOKANE        MOCLDY    33  31  92 SW14      29.81R WCI  23
$$

REGIONAL REPORTS...ALBERTA

CITY           SKY/WX    TMP DP  RH WIND       PRES   REMARKS
EDMONTON       MOCLDY     3  -2  78 W7        29.67R WCI  -9
CALGARY        LGT SNOW   7   3  85 NE8       29.58R WCI  -6
LETHBRIDGE     MOCLDY     7   3  85 NW7       29.60R FOG     WCI  -5
MEDICINE HAT   CLOUDY     9   3  78 NE7       29.63R WCI  -3
$$

REGIONAL REPORTS...SASKATCHEWAN

CITY           SKY/WX    TMP DP  RH WIND       PRES   REMARKS
SWIFT CURRENT  PTSUNNY    7   3  85 CALM      29.60R
REGINA         MOSUNNY    5   0  78 W7        29.66S WCI  -7
SASKATOON      MOCLDY     7   3  85 SW9       29.68R WCI  -7
$$




USA.gov is the U.S. government's official web portal to all federal, state and local government web resources and services.